Other Public Products
Issued by NWS Charleston, SC

Current Version | Previous Version | Text Only | Print | Product List | Glossary Off
Versions: 1 2 3 4 5 6 7 8 9 10 11 12 13 14 15 16 17 18 19 20 21 22 23 24 25 26 27 28 29 30 31 32 33 34 35 36 37 38 39 40 41 42 43 44 45 46 47 48 49 50

218
FPUS82 KCHS 172112
OPUCHS

TEST...KCHS/KSAV Gateway Observations...TEST
National Weather Service Charleston SC
400 PM EST SUN DEC 17 2017

NOTE: "fair" indicates few or no clouds below 12,000 feet with no
significant weather and/or obstructions to visibility.

SCZ050-WAZ558-NCZ071-TXZ119-213-PAZ071-DCZ001-FLZ074-172-MI076-
NYZ176-178-MAZ016-IL014-TNZ027-NJZ106-GAZ044-MD014-172200-

...Gateway Observations for Charleston International...

CITY           SKY/WX    TMP DP  RH WIND       PRES   REMARKS
Chas Airport   PTSUNNY   63  38  39 SW6       30.22S
Seattle        CLOUDY    49  44  83 S21G28    30.05F
Charlotte      CLOUDY    53  30  41 S8        30.19S
Dallas DFW     CLOUDY    52  46  80 SW8       30.03F
Dallas Love    CLOUDY    52  46  80 SW5       30.05F
Philladelphia  CLOUDY    43  28  55 CALM      30.22S
Wash National  CLOUDY    47  35  63 S5        30.18F
Baltimore      CLOUDY    44  32  62 NE5       30.19S
Miami          PTSUNNY   79  68  69 E12       30.17S
Detroit        CLOUDY    36  30  79 E6        30.08F WCI  31
Newark         MOCLDY    37  25  61 E3        30.24S
Laguardia      CLOUDY    36  25  64 NE6       30.24R WCI  31
J F K          MOCLDY    36  26  67 SE6       30.26R WCI  31
Boston Logan   CLOUDY    29   3  33 W9        30.24R WCI  20
Ft. Lauderdale MOSUNNY   77  70  79 E13       30.17S
Chicago O`Hare CLOUDY    41  32  70 SW5       29.97S
Chicago Midway CLOUDY    47  31  53 W5        29.98S
Houston Bush   CLOUDY    60  53  77 CALM      30.07R
Houston Hobby  CLOUDY    64  56  75 CALM      30.05S
Nashville      PTSUNNY   47  44  90 S8        30.11S FOG
Atlanta        LGT RAIN  44  42  93 NE5       30.17S FOG

$$

GAZ044-118-TXZ119-213-NCZ071-DCZ001-MDZ014-506-PAZ021-071-NJZ106-
NYZ176-178-MAZ106-OHZ011-021-055-MIZ076-KYZ091-ILZ014-INZ047-
MNZ060-ONZ431-172200-

...Gateway Observations for Savannah International...

CITY           SKY/WX    TMP DP  RH WIND       PRES   REMARKS
Savannah Arpt  CLOUDY    64  45  49 S3        30.22F
Atlanta        LGT RAIN  44  42  93 NE5       30.17S FOG
Charlotte      CLOUDY    53  30  41 S8        30.19S
Dallas DFW     CLOUDY    52  46  80 SW8       30.03F
Houston Bush   CLOUDY    60  53  77 CALM      30.07R
Wash National  CLOUDY    47  35  63 S5        30.18F
Wash Dulles    CLOUDY    48  26  42 E5        30.16F
Baltimore      CLOUDY    44  32  62 NE5       30.19S
Philadelphia   CLOUDY    43  28  55 CALM      30.22S
Newark         MOCLDY    37  25  61 E3        30.24S
Laguardia      CLOUDY    36  25  64 NE6       30.24R WCI  31
J F K          MOCLDY    36  26  67 SE6       30.26R WCI  31
Boston         CLOUDY    29   3  33 W9        30.24R WCI  20
Pittsburg      CLOUDY    42  30  62 SW3       30.13R
Akron          LGT RAIN  38  29  70 S10       30.10R WCI  31
Cleveland      CLOUDY    39  30  70 S6        30.11S WCI  35
Cincinnati     CLOUDY    45  33  63 S5        30.09S
Columbus       CLOUDY    41  33  73 S3        30.11F
Detroit        CLOUDY    36  30  79 E6        30.08F WCI  31
Chicago O`Hare CLOUDY    41  32  70 SW5       29.97S
Minneapolis    CLOUDY    27  24  89 CALM      30.00F FOG
Indianapolis   CLOUDY    42  38  85 S12       30.05F
Toronto Canada CLOUDY    19   9  63 NE3       30.20S

$$




USA.gov is the U.S. government's official web portal to all federal, state and local government web resources and services.